Aérodrome :
LOGIN :

S'inscrire | Disclaimer

   EN    FR    IT 

 










Légende :    VFR   VFR Marginal   IFR   IFR Intensif   IFR Très Intensif
Visi : 
Plafond : 
>= 8 km
>= 3000ft
5 à 8 km
1000 à 3000 ft
1500m à 5 km
500 à 1000 ft
800 à 1500m
200 à 500 ft
< 800m
< 200 ft
Symboles :   Orages  Brouillard  Fortes neiges  Fortes précipitations  Vent > 20 kt
SIGMETs :   Divers  Orages  Givrage  Turbulence  Onde Orograph.  Cendres Volcan.







- Altitude de l'aérodrome : 614 ft
- Code IATA : CRL


EBCI - Charleroi

DERNIER METAR :
  • 142150Z 16008KT 130V200 CAVOK 07/05 Q1024 NOSIG

METARs EXPIRÉS :
  • 142120Z 16007KT CAVOK 07/05 Q1024 NOSIG
  • 142050Z 16007KT CAVOK 07/05 Q1024 NOSIG
  • 142020Z 16006KT CAVOK 08/05 Q1024 NOSIG
  • 141950Z 17006KT 140V200 CAVOK 08/05 Q1025 NOSIG
  • 141920Z 16005KT CAVOK 08/05 Q1025 NOSIG

TAF TAF EBCI
Valide du 14 à 18h jusqu'au 16 à 00h UTC


141720Z 1418/1524 15005KT CAVOK
BECMG 1422/1424 2500 BR
PROB40 1500/1510 0300 FG BKN001
PROB40 1510/1513 BKN005
BECMG 1513/1515 7000 NSW SCT005
Pas de NOTAMs connus pour ce terrain.



MET'MAP, la Météo Aéronautique d'un coup d'oeil ! - Copyright ORBIFLY Décembre 2007 - Disclaimer

ORBIFLY MET'MAP TEAM :

Programmation & Développement : Alexandra Zaïnal
Conception & Développement : Baudouin d'Aumeries
Co-Programmation & Développement : Marc-Olivier Méhu
Soutien technique & logistique : Manuel Goepfert

Contact : metmap@orbifly.com




SOURCES & CREDITS :

   NOAA